Temperature
24 20 20 21 21 22 23 23 23 24 25 24 23 23 23 23 23 23 22 22 21 21 22 22 22 21 21 21 20 20 20 20 19 19 19 18 18 18 18 18 17 17 17 17
21 20 22 22 23 23 23 23 23 23 24 24 23 22 23 23 22 23 22 22 21 21 21 21 21 21 21 20 20 20 20 20 19 19 19 19 18 18 18 18 17 17 17 17
20 22 23 24 23 23 23 23 23 23 24 24 23 22 22 22 23 23 22 22 21 21 20 20 21 20 20 20 20 20 20 20 19 19 19 18 18 18 17 17 17 17 17 17
21 23 24 24 24 24 23 24 24 24 22 21 23 20 21 20 21 21 21 21 21 21 20 20 20 20 20 20 20 20 20 19 19 19 19 18 18 18 18 17 17 17 17 17
22 23 23 23 24 24 23 24 24 24 22 21 21 20 20 20 20 20 20 21 21 21 20 20 20 20 20 20 19 19 19 19 18 18 18 18 18 18 18 17 17 17 17 16
22 24 24 24 25 25 25 24 23 21 19 20 21 20 19 19 20 20 20 20 21 20 20 20 20 20 20 19 19 19 18 18 18 18 18 18 18 18 17 17 17 17 17 16
22 23 24 25 24 24 23 20 19 20 18 19 20 20 19 20 20 20 20 20 21 20 20 19 19 19 19 19 19 18 18 18 18 18 17 17 17 17 17 17 17 17 16 16
21 21 23 24 23 23 22 20 19 19 19 19 20 19 19 20 21 21 21 21 20 20 19 19 19 19 19 19 18 18 18 17 17 17 17 17 17 17 17 16 16 16 16 16
20 21 23 24 24 23 22 20 19 18 19 19 19 19 19 20 20 20 20 20 19 19 19 19 19 19 19 19 18 18 18 17 17 17 17 17 17 17 16 16 16 16 16 16
20 21 22 24 24 23 22 21 18 18 19 19 19 19 18 19 19 18 18 18 19 19 18 18 18 19 18 18 18 18 18 17 17 17 17 17 16 16 16 16 16 16 16 15
20 19 20 21 22 21 21 21 19 17 17 18 18 18 19 18 18 18 18 18 18 18 18 18 18 18 18 18 18 18 17 17 17 17 16 16 16 16 16 16 15 15 15 15
19 17 18 20 21 22 21 20 18 18 18 17 17 17 19 18 18 18 18 18 18 18 18 18 18 18 17 17 17 17 17 17 17 16 16 16 16 16 15 15 15 15 15 15
19 17 17 18 19 20 20 20 19 17 16 16 17 17 18 17 17 18 18 18 18 18 18 18 18 17 17 17 17 17 17 17 16 16 16 16 15 15 15 15 15 14 14 14
19 16 17 17 18 19 19 20 20 17 16 17 17 17 17 17 16 16 17 17 17 17 17 17 17 17 17 16 16 16 16 16 16 16 16 15 15 15 15 14 15 14 14 14
17 17 18 18 19 20 19 20 20 19 18 17 18 17 17 16 16 16 16 16 16 16 16 16 16 16 16 16 16 16 16 16 16 16 15 15 15 14 14 14 14 14 14 14
15 17 17 18 19 19 19 19 19 19 19 18 18 17 16 16 16 16 16 15 15 15 15 16 16 16 16 16 16 16 16 16 16 15 15 15 14 14 14 14 14 14 14 13
15 15 16 16 18 18 17 17 18 18 18 18 17 16 16 15 15 15 15 15 15 15 15 15 15 15 15 15 16 16 16 15 15 15 15 14 14 14 14 14 14 14 13 13
15 14 13 14 16 16 16 17 18 17 17 16 16 15 15 15 15 15 15 15 15 15 15 15 15 15 15 15 15 15 15 15 15 15 14 14 14 14 13 13 13 13 13 13
14 14 13 13 14 15 16 17 17 16 15 15 15 15 15 15 14 14 15 15 15 15 15 15 15 15 15 15 15 15 15 14 14 14 14 14 14 13 13 13 13 13 13 13
14 13 13 14 15 15 15 16 17 16 14 15 15 14 14 14 13 13 14 15 15 15 14 14 15 15 15 15 15 14 14 14 14 14 14 13 13 13 13 13 13 13 13 13
14 13 13 13 14 14 15 16 16 15 14 14 15 14 14 13 13 14 14 14 14 14 14 14 14 14 14 14 14 14 14 14 14 14 13 13 13 13 13 13 13 13 13 12
13 13 13 12 13 13 14 15 14 13 14 14 14 14 14 14 14 14 14 14 14 14 13 13 13 13 13 14 14 14 14 13 13 13 13 13 13 13 13 12 12 12 12 12
13 12 11 12 12 13 14 14 14 14 14 14 14 14 14 14 14 14 14 13 13 13 13 13 13 13 13 13 13 13 13 13 13 12 12 12 12 12 12 12 12 12 12 12
13 12 11 11 12 13 14 14 14 14 14 14 14 14 14 14 13 13 13 13 13 12 13 12 12 12 12 12 12 12 12 12 12 12 12 12 12 12 12 12 12 12 12 12
12 12 11 11 12 12 13 14 14 14 14 14 14 14 14 14 13 13 13 13 12 12 12 12 12 12 12 12 11 12 12 12 12 12 12 11 11 11 11 11 11 11 12 12
12 12 11 11 12 11 12 13 14 14 14 13 13 13 13 13 13 13 12 12 12 12 11 11 11 11 11 11 11 11 11 11 11 11 11 11 11 11 11 11 11 11 11 11
Wind_Speed
3 3 6 11 10 9 6 6 8 9 7 2 4 5 5 5 6 7 8 9 10 9 7 8 8 9 8 8 8 8 7 5 5 5 4 4 3 3 2 2 4 5 4 4
2 8 14 11 9 8 8 9 9 8 4 2 3 5 5 5 7 8 11 11 11 9 8 8 7 7 8 8 8 7 7 6 5 5 4 4 4 3 3 2 3 4 4 4
10 10 8 8 7 8 9 8 8 7 5 2 2 2 2 2 2 4 8 10 10 12 12 10 9 8 8 8 8 8 7 6 5 5 4 4 3 2 1 1 2 2 3 4
8 9 6 7 9 8 9 9 7 6 2 3 2 2 5 3 0 2 5 7 8 9 10 9 9 9 8 7 6 6 6 6 5 5 6 7 5 4 4 3 3 2 3 4
7 6 6 8 10 8 8 7 5 4 3 1 1 3 5 1 1 3 4 6 8 9 10 10 10 10 8 7 6 5 5 5 5 5 6 6 5 4 3 3 2 2 2 2
9 6 6 8 8 6 5 1 3 3 4 1 4 4 4 3 5 5 4 5 6 7 8 8 8 8 6 6 6 6 5 5 5 6 5 6 5 4 4 3 3 2 1 1
6 7 5 3 3 3 2 4 3 4 3 5 3 3 5 4 5 5 5 5 5 6 7 8 8 7 6 6 6 5 6 5 5 5 5 5 5 6 5 4 3 3 2 2
3 6 5 2 4 4 3 8 7 5 5 4 2 3 4 3 4 5 5 5 5 5 6 7 8 8 7 7 6 6 6 5 5 5 4 4 5 4 4 3 3 3 3 3
4 5 5 3 2 6 4 4 8 7 3 1 2 2 3 3 3 4 5 5 5 5 6 7 7 7 7 8 7 7 6 5 4 4 4 4 4 4 4 3 3 2 2 2
4 3 5 3 3 1 6 6 5 5 4 3 3 3 4 3 2 3 4 4 4 4 5 7 7 6 6 6 6 6 7 6 5 4 4 4 4 4 4 3 3 2 2 1
4 2 5 3 0 2 2 2 3 4 6 6 4 5 4 6 6 6 5 4 4 5 6 6 5 4 5 4 5 5 5 5 5 5 4 4 4 3 3 3 3 3 2 2
2 4 2 5 4 2 4 3 4 4 3 5 4 5 2 3 4 5 5 5 5 5 6 6 5 4 4 4 3 4 5 5 5 5 5 4 4 4 4 3 2 2 3 2
2 5 1 6 7 5 2 1 3 4 4 4 4 5 1 2 4 4 5 4 4 4 4 4 4 4 4 4 3 3 4 5 5 5 5 4 4 4 4 3 3 2 2 2
4 4 5 6 5 2 1 3 1 4 3 3 5 4 1 1 2 2 3 3 4 4 4 4 3 3 3 4 4 4 4 4 5 5 5 4 5 5 4 4 3 2 2 2
4 3 1 3 2 0 1 3 1 1 4 5 5 5 6 5 3 3 4 4 4 3 3 2 3 3 3 3 3 4 3 3 4 5 5 5 4 4 4 4 3 2 1 2
3 3 1 2 2 2 3 2 2 2 1 3 3 2 2 3 3 4 4 4 3 2 1 1 1 2 3 4 4 4 4 3 4 5 5 5 4 4 4 4 4 3 2 2
2 3 2 3 3 3 3 3 2 1 0 4 4 4 4 4 5 4 4 5 3 2 1 1 1 1 2 3 4 4 4 3 4 5 5 5 5 5 5 5 4 4 3 2
5 4 3 1 2 3 4 2 2 3 3 2 3 5 6 6 5 3 3 3 3 2 2 1 1 1 2 1 2 3 3 4 4 4 4 4 5 5 4 3 3 3 3 3
6 6 4 3 2 3 3 3 1 1 2 2 3 5 5 6 6 4 1 2 2 2 2 2 2 1 1 1 2 3 3 3 3 3 3 3 4 5 4 4 3 3 3 2
5 5 5 3 3 4 4 5 3 4 1 3 3 4 5 4 3 1 1 2 2 3 2 2 1 2 1 1 2 4 3 2 2 2 3 3 3 4 3 3 3 2 2 2
3 3 3 3 3 4 4 5 2 3 4 2 2 3 3 2 4 3 1 3 2 2 2 2 3 2 1 1 2 3 3 2 1 1 2 3 2 3 3 2 1 2 2 1
3 2 2 2 3 5 4 3 2 3 2 2 3 3 4 4 4 4 4 3 3 2 2 2 2 1 1 2 3 3 1 1 1 2 2 2 2 2 2 1 1 1 2 2
2 4 4 5 5 4 1 2 2 3 4 2 2 2 5 5 4 4 3 3 2 2 2 1 2 2 2 2 2 2 1 0 2 3 2 1 1 0 1 1 1 0 1 2
2 1 2 1 2 1 2 4 3 3 3 2 3 3 5 6 5 4 3 2 2 1 1 2 2 2 1 1 2 1 1 2 3 3 2 2 2 1 1 1 1 1 1 2
3 0 1 1 2 2 1 3 3 3 3 3 3 3 4 6 5 5 4 2 2 1 1 1 2 2 1 1 1 1 2 3 3 3 2 2 2 1 1 0 0 1 2 3
2 3 4 5 6 4 4 4 4 4 3 3 4 3 3 4 5 5 4 3 2 2 2 2 1 2 1 2 1 1 2 3 3 2 2 1 1 1 1 1 2 3 2 3
Wind_Direction
227 134 218 224 212 210 232 258 265 267 267 237 205 213 210 189 159 153 151 153 152 156 153 143 143 144 141 135 133 138 139 150 149 147 149 149 156 151 146 160 149 146 144 142
348 239 230 225 232 232 245 260 267 280 276 215 213 230 214 190 181 172 162 163 163 152 142 143 140 141 143 143 142 147 150 152 159 164 165 161 152 153 151 145 137 151 152 157
212 237 225 218 233 240 248 235 243 252 298 339 107 335 279 230 165 143 153 161 159 159 160 157 152 152 150 152 153 151 154 152 157 156 136 124 102 96 108 138 180 191 170 162
238 245 236 234 237 220 247 244 232 235 237 270 131 235 277 249 247 144 151 154 159 162 157 156 158 158 158 162 157 151 153 151 151 148 152 154 157 167 192 188 188 195 176 168
248 235 225 235 238 222 231 244 235 233 203 242 307 160 273 315 212 223 194 170 168 165 159 162 167 164 163 161 156 153 147 146 145 150 154 155 160 173 168 163 154 170 184 170
248 257 224 226 240 223 219 319 5 36 77 252 237 172 259 228 210 210 199 185 169 161 163 160 158 154 155 158 154 149 145 153 152 150 150 154 155 151 144 152 164 182 196 201
291 286 273 233 258 299 93 93 24 351 358 248 235 163 234 237 203 192 187 184 157 150 152 154 152 151 155 153 152 150 149 158 161 157 160 164 160 152 156 165 174 177 185 202
242 283 273 231 186 200 199 145 162 199 226 268 300 215 246 255 195 167 160 153 136 134 142 153 161 158 156 155 156 157 163 168 168 166 168 166 157 159 166 164 173 181 195 205
195 260 289 259 205 156 169 177 174 152 183 214 266 268 299 359 101 122 121 123 138 142 146 150 148 149 157 162 165 168 168 170 171 173 165 164 164 162 163 164 167 181 197 193
164 248 291 306 19 9 164 163 111 129 166 232 251 237 233 253 168 144 131 127 145 147 149 144 143 147 157 168 168 165 167 174 175 168 172 168 171 173 168 162 172 183 191 184
136 160 308 347 176 232 55 90 125 142 157 168 221 257 230 200 183 159 151 143 145 145 146 140 143 151 147 148 159 163 168 168 173 175 171 168 173 172 162 166 185 194 192 187
118 126 258 273 272 194 145 146 136 157 210 172 174 255 287 176 157 148 148 148 155 157 158 146 144 146 144 145 158 174 178 179 186 182 168 175 178 175 174 180 187 183 187 196
107 109 47 337 342 4 46 64 126 139 138 162 169 244 332 93 92 119 139 148 147 144 143 135 137 154 163 163 169 186 196 193 183 170 168 174 180 179 187 189 186 178 181 192
117 108 156 200 233 260 304 318 349 122 154 194 200 207 231 129 115 118 116 133 139 140 133 134 144 167 175 172 181 190 206 189 171 170 173 177 183 182 192 195 182 182 184 207
95 119 207 240 263 355 232 272 300 182 186 189 212 201 207 191 170 143 112 102 101 113 114 142 171 183 175 174 190 193 199 195 176 171 177 185 184 173 172 186 183 177 195 234
76 130 72 309 317 345 317 312 275 256 202 173 146 211 210 143 124 110 107 110 104 103 110 161 212 204 184 184 192 193 197 197 179 173 184 186 175 167 173 182 178 177 199 244
100 117 109 268 297 337 295 281 263 261 312 167 187 215 169 135 136 141 137 129 132 131 138 191 237 241 220 204 192 188 188 180 168 174 184 187 180 179 187 187 176 182 186 196
147 129 139 202 11 237 247 271 127 107 36 49 124 159 159 155 139 118 126 139 154 170 180 217 255 271 271 230 181 170 158 160 166 177 190 193 184 184 190 186 180 190 186 187
153 143 136 140 192 256 291 314 319 135 349 356 127 131 133 130 92 50 34 132 160 168 173 192 188 192 268 218 165 148 152 154 163 181 195 199 183 177 177 184 192 190 178 189
88 110 126 141 180 230 262 301 315 106 12 336 99 129 144 123 117 227 266 110 109 112 119 123 116 94 96 217 159 141 140 135 182 205 198 183 170 168 176 196 199 193 181 192
54 57 134 170 202 254 286 309 28 138 225 258 106 126 125 139 174 183 140 90 91 98 109 100 98 96 84 92 122 126 125 167 226 189 152 149 160 165 170 182 197 183 179 176
150 150 180 154 190 248 305 36 119 203 173 115 99 111 118 122 121 118 105 92 80 78 95 98 100 84 43 74 98 99 121 231 136 120 126 146 161 168 146 141 197 194 173 180
161 185 181 179 206 240 317 139 153 132 117 119 121 136 128 120 123 122 113 104 79 59 84 87 107 84 51 56 91 106 297 41 102 108 112 121 115 86 125 136 152 149 165 173
309 80 108 116 235 228 105 100 103 102 123 139 127 132 122 128 136 128 118 107 78 43 69 95 98 89 48 36 69 103 71 96 109 109 101 98 94 74 67 113 149 177 205 200
257 17 92 227 229 82 68 115 126 101 96 96 97 119 129 123 126 130 128 127 125 104 55 95 107 117 108 80 68 49 66 88 96 98 92 81 84 90 64 35 247 232 245 217
235 183 184 222 216 183 214 203 148 124 128 130 121 109 110 127 139 132 131 133 124 107 85 69 67 83 85 86 71 38 59 93 98 87 77 73 57 22 45 41 2 341 290 269
Height
1487 1494 1498 1494 1492 1494 1494 1497 1498 1491 1482 1485 1489 1490 1487 1486 1486 1487 1489 1491 1492 1495 1497 1499 1501 1503 1505 1507 1509 1511 1512 1514 1515 1517 1518 1519 1520 1521 1522 1522 1523 1524 1525 1526
1492 1494 1485 1484 1485 1487 1491 1497 1496 1488 1481 1484 1488 1488 1484 1484 1485 1485 1486 1489 1491 1493 1496 1498 1500 1502 1504 1505 1507 1509 1510 1512 1513 1514 1516 1517 1519 1519 1520 1520 1521 1522 1523 1524
1492 1484 1478 1481 1484 1488 1489 1493 1491 1490 1484 1483 1487 1495 1489 1486 1484 1484 1485 1487 1489 1491 1494 1495 1498 1500 1503 1504 1506 1507 1508 1510 1512 1513 1514 1516 1517 1518 1519 1519 1520 1521 1522 1523
1484 1476 1477 1480 1481 1483 1490 1479 1480 1483 1491 1498 1492 1511 1496 1489 1486 1485 1486 1487 1488 1490 1491 1493 1496 1498 1501 1503 1505 1506 1507 1508 1509 1511 1512 1513 1514 1515 1516 1517 1518 1519 1520 1521
1480 1473 1475 1478 1475 1474 1478 1472 1475 1478 1487 1497 1495 1507 1502 1491 1491 1487 1486 1486 1487 1488 1489 1491 1494 1496 1499 1501 1503 1505 1506 1507 1507 1508 1510 1511 1512 1513 1514 1516 1516 1517 1518 1519
1472 1467 1468 1468 1466 1467 1469 1473 1478 1485 1495 1509 1498 1505 1507 1495 1490 1486 1484 1484 1485 1487 1489 1490 1493 1495 1497 1499 1501 1503 1504 1505 1506 1507 1508 1509 1510 1511 1513 1514 1515 1515 1516 1517
1476 1468 1463 1462 1467 1467 1471 1489 1508 1510 1516 1512 1495 1500 1502 1486 1482 1482 1482 1483 1483 1486 1488 1489 1491 1493 1496 1498 1500 1501 1502 1503 1505 1506 1507 1508 1509 1510 1511 1512 1512 1513 1514 1514
1486 1484 1466 1461 1466 1472 1474 1485 1509 1519 1520 1511 1497 1502 1493 1480 1478 1479 1480 1482 1483 1486 1487 1488 1490 1492 1494 1496 1498 1499 1501 1502 1503 1504 1505 1506 1507 1508 1509 1510 1511 1510 1512 1512
1484 1482 1462 1458 1458 1463 1474 1482 1483 1499 1503 1510 1506 1497 1487 1479 1478 1478 1479 1480 1482 1484 1486 1487 1489 1491 1493 1494 1496 1498 1499 1500 1500 1502 1503 1504 1505 1506 1507 1508 1509 1510 1510 1510
1472 1479 1467 1459 1458 1460 1465 1472 1487 1499 1511 1515 1506 1500 1497 1485 1481 1479 1479 1480 1481 1483 1485 1487 1488 1489 1491 1493 1494 1496 1497 1498 1499 1500 1501 1502 1503 1504 1505 1506 1506 1507 1508 1508
1467 1478 1474 1467 1469 1471 1470 1474 1481 1492 1498 1511 1515 1506 1481 1480 1477 1477 1478 1479 1481 1482 1484 1485 1487 1489 1490 1492 1493 1494 1495 1496 1497 1498 1499 1500 1501 1502 1503 1503 1504 1505 1505 1506
1467 1478 1484 1474 1464 1461 1465 1471 1481 1495 1498 1499 1507 1504 1476 1476 1474 1475 1476 1478 1480 1482 1483 1484 1486 1488 1489 1490 1491 1492 1493 1494 1495 1496 1497 1498 1499 1500 1500 1501 1502 1503 1503 1504
1467 1479 1491 1486 1480 1470 1469 1469 1474 1483 1492 1499 1505 1499 1477 1475 1475 1475 1476 1477 1479 1481 1483 1484 1485 1486 1487 1487 1489 1490 1491 1492 1493 1494 1494 1495 1496 1496 1498 1498 1499 1500 1501 1502
1464 1478 1487 1493 1487 1477 1475 1472 1471 1480 1494 1495 1492 1488 1481 1479 1477 1476 1476 1477 1478 1479 1481 1482 1483 1484 1485 1485 1486 1488 1489 1490 1490 1491 1491 1492 1492 1493 1495 1496 1497 1497 1498 1499
1466 1478 1476 1475 1471 1471 1472 1472 1471 1475 1479 1485 1483 1482 1479 1477 1476 1476 1476 1476 1477 1479 1480 1481 1481 1481 1482 1483 1484 1486 1487 1487 1488 1488 1489 1489 1490 1490 1491 1493 1493 1495 1496 1497
1469 1476 1475 1476 1470 1471 1473 1471 1470 1471 1471 1474 1476 1478 1473 1474 1475 1476 1476 1477 1478 1478 1479 1480 1480 1480 1480 1480 1481 1483 1483 1484 1485 1485 1486 1487 1487 1488 1489 1491 1491 1492 1494 1494
1472 1476 1482 1485 1474 1474 1481 1475 1472 1472 1469 1470 1476 1475 1472 1475 1474 1475 1475 1476 1477 1478 1478 1478 1478 1478 1479 1478 1479 1479 1480 1482 1482 1483 1484 1485 1485 1486 1487 1488 1489 1490 1491 1492
1471 1477 1484 1487 1483 1491 1482 1469 1468 1470 1470 1468 1468 1470 1471 1472 1474 1475 1475 1475 1475 1476 1476 1476 1476 1477 1477 1477 1477 1477 1479 1480 1480 1481 1482 1483 1483 1484 1485 1486 1486 1487 1488 1489
1464 1473 1483 1490 1491 1485 1476 1470 1470 1472 1475 1470 1469 1470 1472 1473 1474 1476 1476 1475 1475 1475 1475 1475 1475 1475 1476 1476 1476 1477 1477 1478 1478 1479 1479 1480 1481 1482 1483 1483 1484 1485 1485 1486
1464 1469 1481 1486 1489 1490 1480 1469 1466 1470 1478 1472 1470 1471 1472 1472 1478 1479 1477 1476 1475 1475 1474 1474 1474 1474 1474 1475 1475 1475 1476 1476 1476 1477 1478 1478 1479 1480 1480 1481 1482 1483 1483 1484
1474 1476 1481 1485 1487 1483 1473 1468 1466 1479 1481 1473 1471 1471 1472 1473 1474 1476 1476 1475 1475 1474 1474 1474 1473 1473 1473 1474 1474 1474 1474 1474 1475 1476 1476 1477 1477 1478 1478 1479 1480 1480 1481 1481
1478 1481 1483 1484 1488 1486 1471 1469 1473 1475 1472 1472 1471 1472 1472 1472 1473 1474 1475 1475 1475 1474 1474 1474 1473 1473 1473 1473 1473 1472 1473 1473 1473 1474 1474 1475 1475 1476 1477 1477 1478 1479 1479 1479
1474 1476 1477 1479 1481 1473 1470 1470 1471 1471 1471 1472 1472 1472 1472 1472 1473 1474 1475 1475 1475 1474 1474 1474 1474 1473 1473 1473 1472 1472 1472 1472 1472 1472 1473 1473 1474 1474 1475 1475 1476 1476 1477 1477
1472 1470 1473 1475 1473 1471 1470 1469 1470 1470 1471 1471 1472 1472 1472 1472 1473 1473 1474 1474 1474 1474 1474 1474 1474 1473 1473 1473 1472 1472 1471 1471 1471 1471 1472 1472 1472 1473 1473 1474 1474 1474 1474 1475
1471 1470 1472 1474 1472 1470 1469 1469 1470 1470 1471 1470 1471 1472 1472 1472 1472 1473 1473 1474 1474 1474 1474 1474 1473 1473 1472 1472 1472 1471 1471 1471 1470 1470 1470 1470 1471 1471 1471 1472 1472 1472 1472 1472
1468 1469 1472 1472 1468 1468 1468 1468 1469 1469 1470 1470 1471 1471 1471 1472 1472 1472 1473 1473 1473 1473 1473 1473 1472 1472 1472 1471 1471 1471 1470 1470 1470 1469 1469 1469 1469 1470 1470 1470 1470 1470 1470 1469